Location: Gwatt
(46.7204°N, 7.6223°E)
Time: 11:59:31
(UTC+00:00)

Transit 2A - Pass Details

Date: 09 May 2021
Orbit: 601 x 958 km, 66.7° (Epoch: 15 June)

Event Time Altitude Azimuth Distance (km) Brightness Sun altitude
Exits shadow 02:13:12 27° 208° (SSW) 1,216 6.5 -15.7°
Maximum altitude 02:15:37 83° 124° (ESE) 628 5.5 -15.4°
Drops below altitude 10° 02:19:59 10° 35° (NE) 1,957 9.5 -14.9°
Sets 02:22:13 0° 35° (NE) 2,859 10.8 -14.6°
